Helicity
56 35 95 150 196 184 257 258 294 177 138 123 129 112 137 167 170 163 186 192 224 233 243 283 309 271 210 164 130 126 125 114 101 109 85 73 61 50 33 37 28 24 24 23
-3 42 82 77 90 253 270 298 287 264 172 126 116 168 182 176 229 198 163 126 117 139 216 269 258 223 187 161 135 131 123 103 127 111 91 72 51 39 44 38 33 43 41 21
98 94 65 117 156 149 277 296 238 186 143 163 153 118 104 166 172 143 105 94 102 137 197 222 212 211 175 144 155 150 133 140 135 113 97 73 59 52 48 36 33 41 38 29
64 130 244 158 152 71 97 124 110 128 164 121 130 154 165 179 130 89 80 100 135 175 168 166 206 197 195 175 179 169 158 161 141 120 100 82 68 66 47 44 44 29 38 34
144 154 196 125 85 129 138 68 107 123 112 141 177 207 173 108 105 68 65 99 144 180 192 190 201 214 231 215 206 188 170 156 139 122 110 87 71 68 61 56 38 31 28 32
173 197 170 116 86 117 160 70 63 109 134 159 179 170 108 87 83 84 79 120 188 210 209 225 215 233 243 213 199 165 149 141 136 115 104 84 68 70 70 51 47 34 37 32
213 258 257 108 102 172 139 67 44 88 119 158 121 102 88 140 148 105 110 137 211 209 208 205 222 237 223 202 152 150 156 147 131 120 103 82 75 71 64 51 58 41 40 35
204 171 136 58 135 128 88 62 74 84 99 85 160 167 164 113 101 98 131 176 193 235 228 224 210 217 206 157 155 170 165 150 133 115 95 82 105 89 81 83 68 56 47 51
124 142 81 0 54 82 56 59 75 102 129 153 165 98 87 61 75 89 137 166 190 246 256 215 194 183 185 160 185 176 162 147 132 123 106 92 98 88 83 65 55 50 48 67
136 167 125 53 74 69 57 44 59 65 88 106 92 107 87 88 112 130 151 161 178 224 233 237 195 161 171 183 183 167 147 141 134 130 112 95 80 67 67 64 55 49 60 69
71 48 56 71 74 67 75 87 66 95 94 78 134 89 115 120 138 145 160 185 186 165 184 212 190 155 166 177 182 157 143 141 130 129 119 108 78 60 63 48 60 67 57 61
38 57 70 90 94 80 98 100 102 128 111 89 97 99 154 146 156 194 198 217 182 140 176 198 190 172 167 179 175 164 148 143 136 137 126 106 108 103 87 89 98 96 78 70
56 62 71 79 74 72 65 62 55 61 70 62 92 157 168 173 177 202 219 220 201 178 177 202 204 190 180 186 187 172 162 146 137 132 129 127 124 125 116 72 108 122 117 115
65 74 88 112 112 118 89 68 80 85 84 93 86 162 206 202 218 221 227 213 232 246 232 218 223 192 195 209 196 179 177 158 142 132 133 133 132 116 116 130 178 139 146 159
68 95 103 94 76 69 82 88 87 87 93 91 102 137 204 218 198 191 220 252 267 274 268 255 237 201 211 224 209 193 180 154 146 140 128 121 135 135 127 161 184 173 163 179
70 90 90 74 42 48 64 74 78 72 96 97 115 152 176 227 246 237 269 297 298 236 252 246 227 214 212 208 204 202 187 172 169 160 151 151 146 147 153 172 184 169 167 159
66 19 37 49 34 34 41 80 109 127 118 121 123 184 258 264 268 260 249 228 221 247 278 270 243 249 213 198 202 203 201 187 175 168 160 156 158 159 168 179 179 179 161 157
59 44 43 42 37 29 18 21 46 83 108 117 183 228 252 237 228 243 265 325 319 333 314 261 282 261 218 197 208 212 208 197 181 168 172 177 165 170 185 189 190 190 183 183
68 45 31 33 36 30 17 14 35 57 75 127 184 170 206 241 244 256 302 318 304 306 231 244 267 266 216 195 209 212 214 209 196 191 191 195 188 184 187 187 189 185 187 183
36 49 47 49 35 20 26 29 22 53 93 146 192 232 246 259 288 312 296 279 241 182 235 230 253 238 208 193 218 213 212 207 197 196 204 191 180 182 185 186 185 184 184 179
33 25 13 -2 12 16 16 11 17 88 153 203 241 288 339 323 277 326 360 338 198 213 250 244 240 221 212 213 218 213 215 210 205 197 188 184 189 188 188 187 187 188 186 185
7 -9 4 11 17 33 40 37 72 138 202 259 288 296 327 330 331 295 283 162 203 221 233 222 217 222 221 236 215 207 210 209 207 206 199 192 187 184 175 183 180 178 176 171
-28 -27 1 22 24 29 35 53 102 164 182 151 150 167 181 174 212 248 211 189 215 197 214 207 206 238 246 224 209 212 216 214 200 190 185 177 170 171 176 169 178 185 178 172
-11 0 34 68 48 54 65 77 85 84 130 124 124 157 204 210 209 179 211 204 193 205 205 220 220 234 242 220 221 222 215 203 191 187 182 182 173 176 184 182 180 164 168 165
15 26 73 96 84 74 74 79 103 107 108 141 160 156 143 144 145 149 174 177 199 226 221 213 224 243 225 213 215 209 198 191 191 195 187 174 169 169 165 162 166 156 154 144
84 78 77 75 70 72 70 74 88 78 89 131 154 142 144 132 161 176 193 206 208 221 223 209 210 216 207 206 205 203 200 198 190 173 168 168 166 159 155 158 160 150 135 129
63 56 59 67 60 62 66 65 71 69 69 84 109 100 123 143 172 188 200 203 208 210 218 213 210 211 215 217 213 203 190 179 170 170 164 157 145 145 143 144 135 129 131 132
Wind_Speed
64 68 72 73 72 57 57 58 62 69 69 75 57 34 23 21 22 34 38 33 25 23 24 22 21 20 19 17 15 14 18 21 24 26 28 34 39 43 45 48 49 51 53 54
86 76 71 77 84 77 65 64 62 61 66 43 32 31 28 25 35 36 31 27 25 24 23 22 18 16 13 12 9 11 13 16 19 22 23 27 33 38 42 45 48 50 52 54
95 87 77 81 71 67 66 54 52 52 52 38 42 36 31 30 29 25 24 24 26 24 21 16 13 11 10 6 6 8 11 16 19 19 20 23 27 33 38 42 46 48 51 53
86 67 76 66 53 48 49 51 45 54 52 49 43 35 29 22 20 20 22 26 27 24 18 10 9 8 6 6 5 8 12 15 17 18 19 20 24 29 33 39 43 46 48 51
69 63 62 56 44 37 39 56 43 42 46 37 32 27 28 18 18 21 25 29 24 18 13 10 6 6 6 7 7 9 11 13 15 17 18 20 21 24 29 35 41 44 45 49
64 67 69 57 43 32 32 61 39 29 32 26 17 22 30 14 18 24 29 27 22 17 13 10 7 6 6 6 7 8 10 12 14 16 17 19 20 21 25 32 38 41 45 47
61 65 63 45 33 17 48 48 33 28 23 13 19 28 18 11 18 23 25 24 20 14 12 8 6 6 4 4 4 9 12 13 14 15 17 18 21 21 24 30 35 39 43 46
54 59 65 32 28 38 35 36 33 26 20 14 20 17 18 17 16 19 22 21 17 14 12 8 6 5 4 3 7 10 10 12 13 15 17 19 21 22 24 28 33 37 40 45
50 54 34 26 30 33 28 37 38 30 26 17 11 16 15 17 18 21 20 17 13 12 11 8 5 4 3 5 6 7 8 10 12 15 17 18 20 21 24 27 31 35 39 43
56 52 54 38 34 38 35 37 32 24 8 3 8 18 18 20 22 21 17 12 12 11 10 6 4 3 4 4 5 5 6 7 9 12 15 18 19 21 23 26 30 34 38 42
54 60 58 53 48 48 40 36 25 16 8 11 18 18 18 20 21 17 14 14 11 8 6 3 3 3 5 5 6 5 6 7 8 9 12 15 18 19 21 25 28 32 37 41
57 52 50 54 46 41 41 37 26 26 34 34 25 22 21 22 19 18 15 11 9 9 8 4 3 3 4 6 7 5 4 5 6 7 10 12 16 20 22 23 26 31 34 38
72 64 57 47 46 44 38 31 26 24 29 27 28 22 23 28 24 21 15 9 7 4 5 4 3 4 5 6 7 5 3 4 5 6 7 9 12 15 19 20 23 30 36 40
41 44 57 55 56 54 46 50 49 46 42 38 40 37 35 34 30 22 13 8 6 6 4 1 3 4 7 7 8 5 3 4 4 3 5 7 9 11 13 15 20 27 35 40
53 45 49 59 64 67 64 63 61 57 47 48 45 41 34 29 24 17 13 8 7 4 2 1 3 3 5 7 8 4 2 2 2 4 4 5 9 10 11 14 17 24 31 36
63 61 59 63 69 68 63 60 60 61 57 56 51 43 33 27 24 16 11 8 6 6 4 4 5 4 4 6 4 2 2 2 3 5 6 9 10 11 13 15 19 22 27 31
63 70 67 68 72 75 75 68 63 62 62 59 45 36 26 23 19 15 12 9 7 4 5 7 5 5 5 4 4 3 2 2 3 6 8 10 11 12 16 18 20 22 26 31
45 56 57 59 64 69 73 72 69 59 53 45 40 28 20 17 17 14 10 9 9 7 4 2 5 5 4 4 4 4 2 2 5 8 11 12 13 16 18 20 22 23 28 34
45 52 53 56 58 62 66 67 61 52 43 36 29 19 14 15 13 11 8 8 8 7 6 1 5 7 5 5 4 3 3 6 8 11 12 13 15 18 19 21 22 25 28 33
49 47 48 53 54 54 60 60 60 47 33 23 21 15 12 12 10 8 7 8 9 9 6 4 7 6 6 4 3 4 5 6 8 10 12 14 16 18 20 22 24 27 30 33
51 52 54 55 57 57 59 61 56 40 24 17 15 15 14 11 7 5 5 9 8 1 3 7 9 7 3 1 3 5 6 8 9 10 12 15 18 20 21 24 26 29 31 34
54 56 56 57 57 57 56 53 45 33 20 17 13 10 7 7 6 5 12 3 2 1 3 4 5 5 2 2 5 6 7 9 11 13 15 17 19 21 23 26 28 29 31 33
60 59 59 57 55 50 48 45 39 31 23 14 7 6 4 6 7 5 7 7 1 4 4 4 5 4 2 5 6 7 7 9 12 13 15 17 19 22 24 26 28 29 31 32
59 57 55 51 45 44 45 40 34 28 21 14 14 10 5 4 12 17 8 3 6 7 4 4 3 3 4 6 6 7 10 11 13 15 17 19 22 23 25 26 29 29 30 31
51 49 48 42 43 40 35 32 28 25 21 20 18 15 13 12 12 5 3 5 7 5 4 4 4 4 5 6 7 8 11 12 14 16 18 20 22 23 24 25 26 27 29 30
42 40 35 35 37 33 31 28 26 24 21 17 16 14 12 11 8 7 6 6 5 5 5 5 5 6 7 7 8 10 12 14 15 17 19 21 22 22 23 24 25 27 28 28
31 29 30 31 33 30 26 22 20 20 17 13 12 11 11 10 8 8 7 6 6 6 6 6 6 7 8 9 10 11 13 15 16 18 19 20 20 22 23 24 25 26 27 25
Wind_Direction
286 286 285 290 291 282 277 281 283 289 293 299 298 292 281 277 296 307 308 308 304 296 293 300 308 314 321 334 347 5 3 5 7 11 14 13 14 14 14 13 11 9 5 2
284 284 284 281 282 283 283 283 285 290 292 302 307 304 296 286 297 305 309 314 313 307 303 301 304 310 319 331 352 8 13 11 14 14 14 14 14 14 13 13 12 10 8 8
283 284 286 280 269 267 280 279 283 282 291 300 300 299 294 289 294 302 309 315 318 316 310 305 302 313 319 343 5 5 14 12 10 12 13 13 16 15 14 13 12 12 10 10
284 287 279 290 292 277 271 276 280 291 298 299 301 303 304 297 296 303 314 321 323 324 325 319 320 326 355 18 15 4 5 14 16 14 14 18 17 16 15 14 15 15 13 12
279 278 290 286 293 284 281 284 288 291 298 304 309 316 307 303 306 315 320 325 331 335 340 345 356 12 43 57 25 10 5 15 24 17 17 19 22 23 24 21 17 16 16 14
276 276 280 289 288 293 297 288 303 301 306 311 310 296 301 291 311 320 323 329 337 343 347 355 13 56 69 65 36 12 4 13 26 21 23 24 27 38 33 25 19 19 15 13
273 273 282 292 303 309 284 298 319 318 314 299 294 308 315 316 318 323 333 340 345 352 353 9 54 82 62 54 24 8 2 12 25 26 31 28 30 38 36 24 21 17 15 14
275 277 280 291 292 291 304 316 324 328 321 304 309 314 322 327 331 334 335 342 348 352 359 20 54 86 53 28 1 357 20 14 27 29 24 20 29 32 31 28 22 19 17 14
279 278 300 303 304 312 322 319 322 318 311 296 296 316 325 325 330 330 336 344 357 3 7 10 51 74 40 11 19 17 31 22 27 29 23 25 32 32 31 29 24 20 17 13
284 287 289 301 302 305 309 313 326 329 353 2 298 311 314 320 327 329 334 344 354 356 350 6 47 54 14 39 44 55 44 34 27 26 22 20 28 33 35 30 24 20 16 12
290 288 291 290 294 294 300 308 314 323 313 299 302 300 306 315 322 325 327 329 339 347 351 11 77 79 50 84 97 77 57 36 29 33 24 25 32 36 33 28 25 20 15 11
288 298 299 299 303 301 298 298 304 304 301 300 295 294 301 312 316 317 315 321 330 335 354 33 94 104 86 115 127 102 63 29 43 40 25 32 32 24 26 28 23 18 14 11
286 293 291 300 303 302 307 309 309 308 299 298 299 297 301 307 307 310 309 299 295 306 348 29 98 139 130 136 137 128 75 67 56 33 28 31 24 21 17 23 23 13 9 7
312 309 295 290 288 292 295 293 294 294 294 296 300 301 297 298 301 300 286 269 286 306 331 44 125 162 154 153 152 146 95 92 89 39 30 28 21 13 16 14 3 4 4 3
302 303 298 292 288 286 287 288 287 289 292 292 297 298 294 290 289 286 297 291 295 297 299 138 152 158 151 160 162 168 148 117 48 17 33 23 9 6 5 2 358 357 358 359
296 295 292 287 281 281 285 287 287 288 290 290 292 293 287 283 292 292 290 272 262 241 202 171 164 139 136 148 160 163 143 125 11 13 16 2 358 356 353 351 350 350 351 352
297 288 286 283 280 278 278 285 288 290 290 293 298 297 287 282 290 287 277 264 268 235 179 169 166 132 134 140 141 134 119 43 28 10 356 353 353 352 351 349 347 348 349 351
313 298 295 290 287 283 279 281 284 293 293 296 299 296 282 265 264 267 266 274 293 308 288 197 156 140 132 124 114 109 86 23 353 347 349 353 353 352 350 349 349 349 348 349
331 310 302 298 300 296 291 291 295 299 300 292 296 281 264 269 271 272 260 259 257 263 259 204 159 150 139 119 95 59 4 348 349 347 352 356 353 351 349 349 348 347 347 347
324 317 314 309 310 310 305 304 301 300 301 295 289 286 273 274 266 254 252 262 276 287 163 166 159 157 143 120 57 7 355 352 347 349 354 352 350 349 349 348 347 345 345 346
312 307 307 308 307 308 308 307 309 311 304 298 283 275 268 279 273 239 230 277 297 312 164 153 157 156 144 76 11 358 358 349 350 352 350 348 348 348 347 345 345 344 345 346
303 302 302 304 306 309 313 318 327 331 321 309 306 299 286 277 279 287 308 248 279 156 143 145 150 149 125 56 352 349 346 349 351 350 348 347 346 344 343 342 342 344 345 347
292 298 299 301 307 316 325 333 337 334 330 329 334 325 313 292 280 252 286 307 122 125 129 131 126 117 79 354 350 353 357 351 349 349 349 348 347 345 343 342 344 346 347 349
298 305 304 310 318 320 321 332 335 341 344 347 347 347 4 331 311 312 329 91 112 113 106 107 89 70 31 6 10 6 358 357 356 355 353 351 349 348 347 348 346 349 350 351
313 316 312 315 313 317 326 330 337 343 341 335 335 333 331 324 317 339 59 88 106 87 43 60 64 67 27 20 15 9 6 4 2 360 357 354 351 351 351 352 352 353 353 353
324 320 318 315 314 322 323 328 334 337 339 343 341 341 346 351 33 47 49 64 55 52 30 40 46 40 29 27 23 17 14 10 7 1 359 357 357 357 358 357 358 356 356 358
334 335 333 325 317 318 326 339 349 346 353 7 9 5 13 19 27 29 34 32 29 23 37 41 43 37 32 29 25 21 14 10 7 4 2 2 3 1 360 359 359 1 3 6